Location: Downe
(51.3167°N, 0.0500°E)
Time: 17:40:15
(UTC+00:00)

SL-16 R/B - Pass Details

Date: 17 November 2019
Orbit: 839 x 850 km, 71.0° (Epoch: 11 December)

Event Time Altitude Azimuth Distance (km) Brightness Sun altitude
Exits shadow 06:04:40 - 333° (NNW) 3,142 4.8 -11.6°
Reaches altitude 10° 06:06:57 10° 347° (NNW) 2,489 4.4 -11.3°
Maximum altitude 06:11:02 20° 33° (NNE) 1,896 4.2 -10.7°
Drops below altitude 10° 06:15:06 10° 79° (ENE) 2,483 5.7 -10.1°
Sets 06:18:16 0° 96° (E) 3,415 7.3 -9.6°
